Weather Roundup
Issued by NWS

Home | Current Version | Previous Version | Graphics & Text | Print | Product List | Glossary Off
Versions: 1 2 3 4 5 6 7 8 9 10 11 12 13 14 15 16 17 18 19 20 21 22 23 24 25 26 27 28 29 30 31 32 33 34 35 36 37 38 39 40 41 42 43 44 45 46 47 48 49 50

339
NZUS93 KARX 181710
HRRWXR

CURRENT HOURLY OBSERVATIONS ACROSS
MUCH OF THE UPPER MISSISSIPPI VALLEY
NATIONAL WEATHER SERVICE LA CROSSE WI
1200 PM CDT FRI AUG 18 2017


...SOUTHEAST MINNESOTA...


CITY           SKY/WX    TMP DP  RH WIND       PRES   REMARKS
ROCHESTER      CLOUDY    65  62  90 NW7       29.93F
ROCHESTER/MAYO CLOUDY    65  62  90 W6        29.92F
WINONA         CLOUDY    70  61  73 NW7       29.90F
AUSTIN         CLOUDY    64  63  94 W5        29.94R
ALBERT LEA     CLOUDY    66  64  94 CALM      29.95R
DODGE CENTER   CLOUDY    63  61  94 W8        29.94S
PRESTON        CLOUDY    65  58  78 W3        29.94R
OWATONNA       CLOUDY    64  63  94 W3        29.94S
FARIBAULT      CLOUDY    64  63  94 SW5       29.94R
$$

...ELSEWHERE IN MINNESOTA...


CITY           SKY/WX    TMP DP  RH WIND       PRES   REMARKS
MINNEAPOLIS    LGT RAIN  67  62  84 W7        29.91R
INTNL FALLS    SUNNY     75  58  55 NW6       29.84R
DULUTH         CLOUDY    69  60  73 NW7       29.87R
RED WING       LGT RAIN  66  63  88 W6        29.90S
REDWOOD FALLS  CLOUDY    66  61  84 SW7       29.93S
MANKATO        RAIN      61  60  97 SW5       29.95F FOG
WORTHINGTON    SUNNY     71  61  70 VRB3      29.96S
FAIRMONT       CLOUDY    68  62  81 CALM      29.96R
$$

...SOUTHWEST WISCONSIN...


CITY           SKY/WX    TMP DP  RH WIND       PRES   REMARKS
LA CROSSE      PTSUNNY   74  60  61 NW8       29.89F
PRAIRIE DU CHI CLOUDY    72  56  58 N6        29.89F
BOSCOBEL       PTSUNNY   73  61  65 W7        29.91R
LONE ROCK      MOSUNNY   74  61  63 W10       29.89R
PLATTEVILLE    SUNNY     71  61  71 NW6       29.91F
FORT MC COY    CLOUDY    70  60  69 W8G17     29.90S
CAMP DOUGLAS   PTSUNNY   73  59  60 W12       29.87R
MAUSTON-NEW LI PTSUNNY   72  60  66 W10       29.86S
VIROQUA        PTSUNNY   69  60  74 NW8       29.93R
WIS DELLS      PTSUNNY   73  56  55 W9G18     29.87S
$$

...ELSEWHERE IN WISCONSIN...


CITY           SKY/WX    TMP DP  RH WIND       PRES   REMARKS
MILWAUKEE      PTSUNNY   72  59  63 W13       29.85R
MADISON        PTSUNNY   73  59  61 NW8       29.86S
GREEN BAY      CLOUDY    71  61  70 W14G20    29.80R
EAU CLAIRE     CLOUDY    70  61  73 W7        29.88R
BLACK RVR FLS  FAIR      72  58  60 W8        29.88R
MEDFORD        PTSUNNY   66  57  71 NW9       29.86R
WAUSAU         CLOUDY    67  57  70 NW10      29.82F
WIS RAPIDS     MOSUNNY   72  60  66 N9        29.86S
MARSHFIELD     CLOUDY    70  56  61 N12       29.85S
RICE LAKE      CLOUDY    68  60  74 W6        29.90S
$$

...NORTHEAST IOWA...


CITY           SKY/WX    TMP DP  RH WIND       PRES   REMARKS
WATERLOO       PTSUNNY   72  55  55 CALM      29.93F
DUBUQUE        CLOUDY    73  58  59 N6        29.92F
DECORAH        CLOUDY    68  61  77 NW6       29.91F
MASON CITY     CLOUDY    67  61  81 W7        29.98R
CHARLES CITY   PTSUNNY   72  59  64 CALM      29.95R
OELWEIN        CLOUDY    70  63  78 W5        29.94F
$$

...ELSEWHERE IN IOWA...


CITY           SKY/WX    TMP DP  RH WIND       PRES   REMARKS
DES MOINES     MOSUNNY   81  64  56 SW8       29.91F
IOWA CITY      CLOUDY    75  63  66 SW6       29.95S
FORT DODGE     PTSUNNY   73  63  68 NE8       29.95F
MARSHALLTOWN   SUNNY     74  63  68 CALM      29.93F
CEDAR RAPIDS   CLOUDY    74  62  66 VRB3      29.94R
$$

...NORTHERN ILLINOIS...


CITY           SKY/WX    TMP DP  RH WIND       PRES   REMARKS
CHICAGO-OHARE  PTSUNNY   75  59  57 NW16      29.88S
CHICAGO-MIDWAY PTSUNNY   75  61  61 NW8       29.88S
MOLINE         MOSUNNY   80  60  50 NW6       29.93R
ROCKFORD       PTSUNNY   73  60  63 W12       29.90F
PEORIA         SUNNY     81  62  52 W9        29.94F
$$

NOTE: "FAIR" INDICATES FEW OR NO CLOUDS BELOW 12,000 FEET WITH NO
SIGNIFICANT WEATHER AND/OR OBSTRUCTIONS TO VISIBILITY. WIND
SPEEDS ARE IN MILES-PER-HOUR.




USA.gov is the U.S. government's official web portal to all federal, state and local government web resources and services.